Regional Weather Roundup
Issued by NWS Grand Forks, ND

Home | Current Version | Previous Version | Graphics & Text | Print | Product List | Glossary On
Versions: 1 2 3 4 5 6 7 8 9 10 11 12 13 14 15 16 17 18 19 20 21 22 23 24 25 26 27 28 29 30 31 32 33 34 35 36 37 38 39 40 41 42 43 44 45 46 47 48 49 50
778
ASUS43 KFGF 231210
RWRFGF
PRAIRIE TO PINES  WEATHER ROUNDUP
NATIONAL WEATHER SERVICE EASTERN NORTH DAKOTA/GRAND FORKS ND
700 AM CDT SAT JUL 23 2016

 **SATELLITE DATA USED TO AUGMENT SKY COVER AT AUTOMATED STATIONS**
 *****  WEATHER ACROSS EASTERN NORTH DAKOTA  *****

CITY           SKY/WX    TMP DP  RH WIND       PRES   REMARKS
GRAND FORKS    LGT RAIN  70  63  78 E5        29.84F
6HR MIN TEMP:  69; 6HR MAX TEMP:  74; 6HR PCP: TRACE;

GRAND FRKS AFB CLOUDY    69  63  81 S9        29.84F
GRAND FRKS NWS   N/A     68 N/A N/A S7          N/A
DEVILS LAKE    LGT RAIN  67  65  93 SE3       29.86F
6HR MIN TEMP:  67; 6HR MAX TEMP:  73; 6HR PCP:  0.13;

FARGO          CLOUDY    73  62  68 SE6       29.84F
WAHPETON ARPT  CLOUDY    73  64  73 E6        29.84S
$$

 ***** WEATHER ACROSS CENTRAL AND WESTERN NORTH DAKOTA  *****

CITY           SKY/WX    TMP DP  RH WIND       PRES   REMARKS
BISMARCK       PTCLDY    69  63  81 E12       29.78F
6HR MIN TEMP:  67; 6HR MAX TEMP:  73; 6HR PCP:  0.04;

MINOT          TSTM      68  65  90 VRB3      29.86R FOG
6HR MIN TEMP:  67; 6HR MAX TEMP:  76; 6HR PCP:  0.51;

JAMESTOWN      CLOUDY    68  65  90 N5        29.82F
6HR MIN TEMP:  67; 6HR MAX TEMP:  77; 6HR PCP: TRACE;

MINOT AFB      LGT RAIN  64  63  94 S17       29.79F
GARRISON         N/A     67  64  90 MISG      29.89R
WILLISTON      MOCLDY    67  62  84 SW7       29.82R
6HR MIN TEMP:  67; 6HR MAX TEMP:  72; 6HR PCP:  0.10;

DICKINSON      PTCLDY    62  60  93 E8        29.81F
6HR MIN TEMP:  62; 6HR MAX TEMP:  65; 6HR PCP: TRACE;

HETTINGER      MOCLDY    66  60  81 SE6       29.81S
6HR MIN TEMP:  64; 6HR MAX TEMP:  68; 6HR PCP: TRACE;

$$

 *****  OTHER AIRPORT OBSERVATIONS IN OUR AREA  *****

CITY           SKY/WX    TMP DP  RH WIND       PRES   REMARKS
WALHALLA       NOT AVBL
GRAFTON AIRPOR FAIR      66  63  88 SE3       29.87S
VALLEY CITY AR   N/A     72  72 100 E7        29.83F
CANDO          NOT AVBL
CAVALIER APRT  FAIR      66  59  77 S8        29.87S
GWINNER        FAIR      72  68  88 E8        29.82S
SHEYENNE NWR     N/A     72  68  86 E7        29.95S
ROLLA            N/A     66  64  94 SE6       29.84F
 ***** THE ABOVE OBSERVATIONS ARE NON NWS ARE NOT QUALITY
       CONTROLLED AND MAY MIS-REPORT RAIN FOR SNOW...
$$

  *****  WEATHER ACROSS NORTHERN MINNESOTA  *****

CITY           SKY/WX    TMP DP  RH WIND       PRES   REMARKS
FLAG ISLAND    PTSUNNY   70  57  64 E8        29.92F
WARROAD        CLOUDY    68  63  83 E13       29.93F
ROSEAU         CLOUDY    66  61  82 E10       29.91F
HALLOCK        CLOUDY    66  59  77 E8        29.85S
THF RVR FALLS  CLOUDY    69  62  78 SE9       29.89S
6HR MIN TEMP:  66; 6HR MAX TEMP:  70; 6HR PCP: TRACE;

BAUDETTE       CLOUDY    64  60  87 E7        29.95F
6HR MIN TEMP:  60; 6HR MAX TEMP:  64;

WASKISH        CLOUDY    63  61  94 E7        29.95F
CROOKSTON      CLOUDY    70  63  78 SE7       29.87S
STEPHEN NDAWN    N/A     70  59  68 SE7         N/A
GREENBUSH NDAW   N/A     64  61  88 E6          N/A
$$
  *****  WEATHER ACROSS CENTRAL AND WEST MINNESOTA  *****

CITY           SKY/WX    TMP DP  RH WIND       PRES   REMARKS
FOSSTON        CLOUDY    70  61  73 SE6       29.90R
BEMIDJI        CLOUDY    68  63  83 SE8       29.92F
PARK RAPIDS    CLOUDY    71  59  65 SE10      29.92F
6HR MIN TEMP:  69; 6HR MAX TEMP:  74;

ELBOW LAKE     FAIR      74  67  81 SE15      29.86F
WADENA         CLOUDY    66  63  88 E6        29.92F
DETROIT LAKES  CLOUDY    72  55  56 SE14      29.88F
MOORHEAD       PTCLDY    72  63  73 CALM      29.85F
FERGUS FALLS   CLOUDY    77  64  65 SE10G17   29.85F
MORRIS MN      CLOUDY    73  68  83 E9        29.85S
STAPLES        CLOUDY    70  61  73 E3        29.93F
$$
  *****  WEATHER ELSEWHERE ACROSS MINNESOTA  *****

CITY           SKY/WX    TMP DP  RH WIND       PRES   REMARKS
DULUTH         SUNNY     67  59  75 E3        30.00F
6HR MIN TEMP:  61; 6HR MAX TEMP:  70;

INTRNTL FALLS  CLOUDY    61  60  97 SE5       29.97F
6HR MIN TEMP:  56; 6HR MAX TEMP:  62;

ELY            CLOUDY    55  54  94 CALM      30.02S
CLOQUET        SUNNY     64  61  88 E3        29.99F
WHEATON        CLOUDY    73  70  88 E10       29.84F
BRAINERD       CLOUDY    70  63  78 CALM      29.95F
6HR MIN TEMP:  66; 6HR MAX TEMP:  72;

HIBBING        MOSUNNY   55  55 100 CALM      30.00S
6HR MIN TEMP:  52; 6HR MAX TEMP:  59;

ALEXANDRIA     CLOUDY    74  66  76 E12       29.91F
6HR MIN TEMP:  71; 6HR MAX TEMP:  74;

SAINT CLOUD    CLOUDY    72  68  87 E7        29.91F
6HR MIN TEMP:  68; 6HR MAX TEMP:  72;

MINNEAPOLIS    CLOUDY    77  69  76 SE9       29.94F
6HR MIN TEMP:  75; 6HR MAX TEMP:  80;

$$

  *****  WEATHER ACROSS SOUTH DAKOTA  *****

CITY           SKY/WX    TMP DP  RH WIND       PRES   REMARKS
SIOUX FALLS    TSTM      72  70  93 N7        29.85S
6HR MIN TEMP:  72; 6HR MAX TEMP:  81; 6HR PCP:  0.93;

BROOKINGS      TSTM      67  66  97 S13G26    29.92R FOG
WATERTOWN      CLOUDY    75  73  93 E8        29.83F
6HR MIN TEMP:  75; 6HR MAX TEMP:  79;

HURON          LGT RAIN  72  69  90 NW7       29.74F
6HR MIN TEMP:  71; 6HR MAX TEMP:  79; 6HR PCP:  0.50;

SISSETON         N/A     72  68  87 S6        29.80F
ABERDEEN       CLOUDY    74  70  87 E8        29.79S
6HR MIN TEMP:  72; 6HR MAX TEMP:  76;

MITCHELL       CLOUDY    72  70  93 E9        29.81F
PIERRE         CLOUDY    76  73  91 E8        29.76F
6HR MIN TEMP:  76; 6HR MAX TEMP:  80; 6HR PCP: TRACE;

MOBRIDGE       LGT RAIN  74  68  81 SE26G41   29.69F
RAPID CITY     CLOUDY    63  56  78 SE7       29.81F
6HR MIN TEMP:  63; 6HR MAX TEMP:  76; 6HR PCP: TRACE;

$$

  *****  SOME WEATHER IN NEARBY STATES *****

CITY           SKY/WX    TMP DP  RH WIND       PRES   REMARKS
GLASGOW MT     CLOUDY    62  53  72 W16G25    29.86R
6HR MIN TEMP:  62; 6HR MAX TEMP:  73; 6HR PCP: TRACE;

GREAT FALLS MT CLEAR     58  41  53 SW14      30.01F
6HR MIN TEMP:  54; 6HR MAX TEMP:  60;

CHEYENNE WY    CLOUDY    65  43  44 W13       30.13S
6HR MIN TEMP:  64; 6HR MAX TEMP:  74;

SCOTTSBLUFF NE CLOUDY    62  58  86 N5        29.95S
6HR MIN TEMP:  61; 6HR MAX TEMP:  67;

OMAHA NE       CLOUDY    83  70  64 S8        29.86F
6HR MIN TEMP:  82; 6HR MAX TEMP:  85; 6HR PCP:  0.13;

DES MOINES IA  CLOUDY    80  76  87 S8        29.89F
6HR MIN TEMP:  79; 6HR MAX TEMP:  82;

DAVENPORT IA   SUNNY     77  75  93 E3        29.98R
6HR MIN TEMP:  73; 6HR MAX TEMP:  77; 6HR PCP: TRACE;

CHICAGO IL     PTSUNNY   80  75  84 NW5       29.99R
6HR MIN TEMP:  77; 6HR MAX TEMP:  81;

EAU CLAIRE WI  SUNNY     69  68  96 NE3       29.98S
6HR MIN TEMP:  64; 6HR MAX TEMP:  71;

LA CROSSE WI   CLOUDY    75  73  93 E6        29.96S FOG
6HR MIN TEMP:  75; 6HR MAX TEMP:  79;

$$

  *****  SOME NATIONAL WEATHER *****

CITY           SKY/WX    TMP DP  RH WIND       PRES   REMARKS
LA GUARDIA NY  MOSUNNY   84  64  50 NW6       29.85S
6HR MIN TEMP:  82; 6HR MAX TEMP:  86;

RALEIGH NC     MOSUNNY   77  72  84 W5        30.00R
6HR MIN TEMP:  72; 6HR MAX TEMP:  77;

ATLANTA GA     PTSUNNY   78  73  84 W6        30.05R
6HR MIN TEMP:  76; 6HR MAX TEMP:  79;

NEW ORLEANS LA MOCLDY    81  76  84 CALM      29.99S
6HR MIN TEMP:  80; 6HR MAX TEMP:  83;

OKLAHOMA CITY  PTCLDY    72  67  84 SE7       29.97S
6HR MIN TEMP:  71; 6HR MAX TEMP:  77;

ALBUQUERQUE NM PTCLDY    69  50  50 S3        30.16S
6HR MIN TEMP:  69; 6HR MAX TEMP:  85;

SALT LAKE CITY PTCLDY    70  36  28 NW6       30.11R
6HR MIN TEMP:  67; 6HR MAX TEMP:  81;

LOS ANGELES CA CLOUDY    70  64  81 E7        29.80S
6HR MIN TEMP:  70; 6HR MC1F1C2F2C3F3C4F4C5F5C6F6C7F7C8F8C9F9CaFaCbFbCcFcCd!



USA.gov is the U.S. government's official web portal to all federal, state and local government web resources and services.